Location: Arroyo Mobile Home Park
(34.3733°N, 119.3071°W)
Time: 02:17:23
(UTC+00:00)

Cosmos 1125 Rocket - Pass Details

Date: 03 August 2024
Orbit: 756 x 776 km, 74.0° (Epoch: 08 September)

Event Time Altitude Azimuth Distance (km) Brightness Sun altitude
Rises 12:29:00 0° 335° (NNW) 3,225 6.8 -8.5°
Reaches altitude 10° 12:31:27 10° 330° (NNW) 2,293 6.0 -8.1°
Maximum altitude 12:36:25 47° 258° (WSW) 997 3.7 -7.1°
Drops below altitude 10° 12:41:20 10° 185° (S) 2,272 5.7 -6.2°
Sets 12:43:45 0° 179° (S) 3,193 6.5 -5.8°
